Flag for U.S.A. Weather past 2 weeks in Key West, Florida, U.S.A.

Now
65 °F

Sunny.


Feels Like: 65 °F
Forecast: 63 / 67 °F
Wind: 12 mph from North

Location: Key West International Airport

Current Time: Jan 28, 2015 at 5:15:00 PM

Latest Report: Jan 28, 2015 at 3:53 PM


Visibility: 10 mi

Pressure: 30.14 "Hg

Humidity: 52%

Dew point: 47 °F

Location of Key WestLocation

Historic Weather in Key West — Graph

°F

Key West temperature yesterday

Maximum temperature yesterday: 70 °F (at 11:53 AM)
Minimum temperature yesterday: 65 °F (at 2:53 AM)
Average temperature yesterday: 67 °F

Past Weeks' High & Low Weather Summary

 TemperatureHumidityPressure
High79 °F (Jan 13, 2:53 PM)100% (Jan 21, 6:53 PM)30.20 "Hg (Jan 21, 6:53 PM)
Low61 °F (Jan 25, 11:53 PM)47% (Jan 19, 4:53 PM)29.93 "Hg (Jan 24, 3:53 AM)
Average71 °F78%30.06 "Hg
* Reported Jan 13 2:53 PM — Jan 28 2:53 PM, Key West, Weather by CustomWeather, © 2014

Note: Actual official high and low records may vary slightly from our data, if they occured in-between our weather recording intervals... More about our weather records

Advertising

Key West weather history for previous 24 hours

 ConditionsComfort  
Time TempWeatherWind HumidityBarometerVisibility
2:53 PM
Jan 28
66 °FSunny.14 mph50%30.14 "Hg10 mi
1:53 PM66 °FSunny.12 mph47%30.14 "Hg10 mi
12:53 PM66 °FSunny.12 mph49%30.17 "Hg10 mi
11:53 AM66 °FSunny.14 mph49%30.19 "Hg10 mi
10:53 AM66 °FSunny.15 mph49%30.20 "Hg10 mi
9:53 AM65 °FScattered clouds.15 mph52%30.19 "Hg10 mi
8:53 AM64 °FPartly sunny.10 mph63%30.17 "Hg10 mi
7:53 AM63 °FScattered clouds.17 mph75%30.14 "Hg10 mi
7:02 AM64 °FPassing clouds.14 mph81%30.12 "Hg10 mi
6:53 AM64 °FPassing clouds.13 mph84%30.11 "Hg10 mi
5:53 AM66 °FMostly cloudy.14 mph81%30.09 "Hg10 mi
4:53 AM67 °FClear.10 mph73%30.06 "Hg10 mi
3:53 AM67 °FClear.9 mph73%30.06 "Hg10 mi
2:53 AM67 °FPassing clouds.9 mph73%30.07 "Hg10 mi
1:53 AM67 °FPassing clouds.10 mph73%30.08 "Hg10 mi
12:53 AM67 °FPassing clouds.12 mph71%30.08 "Hg10 mi
11:53 PM
Jan 27
67 °FPassing clouds.13 mph71%30.09 "Hg10 mi
10:53 PM67 °FPassing clouds.12 mph71%30.09 "Hg10 mi
9:53 PM67 °FClear.12 mph68%30.08 "Hg10 mi
8:53 PM67 °FPassing clouds.12 mph68%30.08 "Hg10 mi
7:53 PM67 °FClear.12 mph68%30.07 "Hg10 mi
6:53 PM67 °FClear.10 mph68%30.06 "Hg10 mi
5:53 PM67 °FSunny.12 mph71%30.05 "Hg10 mi
Weather by CustomWeather, © 2014

See weather overviewHow to use our weather pages